Springfield, VT

7:32 PM EDT on April 24, 2018 (GMT -0400)
Hartness State

Weather History for KVSF - May, 2012

Change the Weather History Date:

Sunday, May 27, 2012

  Actual Average Record
Temperature  
Mean Temperature 68 °F 58 °F  
Max Temperature 84 °F 70 °F 88 °F (2011)
Min Temperature 51 °F 46 °F 32 °F (2013)
Degree Days  
Heating Degree Days 0 7  
Month to date heating degree days 289  
Since 1 July heating degree days 7395  
Cooling Degree Days 3 1  
Month to date cooling degree days 30 1  
Year to date cooling degree days 38 3  
Growing Degree Days 16 (Base 50)    
Moisture  
Dew Point 52 °F    
Average Humidity 62    
Maximum Humidity 93    
Minimum Humidity 31    
Precipitation  
Precipitation 0.00 in 0.14 in 0.53 in (2014)
Month to date precipitation 3.99 3.09  
Year to date precipitation 11.97 15.62  
Sea Level Pressure  
Sea Level Pressure 30.13 in    
Wind  
Wind Speed 2 mph (ENE)    
Max Wind Speed 10 mph    
Max Gust Speed 14 mph    
Visibility 10 miles    
Events      
T = Trace of Precipitation, MM = Missing Value Source: NWS Daily Summary

Daily Weather History Graph

Daily Weather History Graph

Search for Another Location

Airport or City:

Astronomy

May. 27, 2012 Rise Set
Actual Time 5:15 AM EDT 8:19 PM EDT
Civil Twilight 4:40 AM EDT 8:54 PM EDT
Nautical Twilight 3:56 AM EDT 9:38 PM EDT
Astronomical Twilight 3:04 AM EDT 10:31 PM EDT
Moon 11:23 AM EDT (5/27) 12:19 AM EDT (5/27)
Length of Visible Light 16h 13m
Length of Day
15h 04m
Waxing Crescent, 38% of the Moon is Illuminated
May 27
Waxing Crescent
May 28
First Quarter
Jun 4
Full
Jun 11
Last Quarter
Jun 19
New

Hourly Weather History & Observations

Time (EDT) Temp. Dew Point Humidity Pressure Visibility Wind Dir Wind Speed Gust Speed Precip Events Conditions
12:54 AM 57.0 °F 54.0 °F 89% 30.15 in 10.0 mi Calm Calm - N/A   Clear
1:54 AM 57.0 °F 53.1 °F 87% 30.15 in 10.0 mi Calm Calm - N/A   Clear
2:54 AM 55.0 °F 52.0 °F 89% 30.16 in 10.0 mi Calm Calm - N/A   Clear
4:14 AM 53.6 °F 51.8 °F 94% 30.17 in 10.0 mi Calm Calm - N/A   Partly Cloudy
4:54 AM 53.1 °F 50.0 °F 89% 30.18 in 10.0 mi Calm Calm - N/A   Clear
5:09 AM 51.8 °F 50.0 °F 94% 30.19 in 10.0 mi Calm Calm - N/A   Partly Cloudy
5:38 AM 51.8 °F 48.2 °F 88% 30.20 in 8.0 mi Calm Calm - N/A   Mostly Cloudy
5:54 AM 53.1 °F 50.0 °F 89% 30.20 in 8.0 mi Calm Calm - N/A   Mostly Cloudy
6:05 AM 53.6 °F 51.8 °F 94% 30.21 in 9.0 mi Calm Calm - N/A   Scattered Clouds
6:54 AM 55.9 °F 52.0 °F 87% 30.22 in 10.0 mi Calm Calm - N/A   Clear
7:54 AM 61.0 °F 53.1 °F 75% 30.21 in 10.0 mi ENE 3.5 mph - N/A   Clear
8:54 AM 66.9 °F 52.0 °F 59% 30.19 in 10.0 mi Calm Calm - N/A   Clear
9:54 AM 72.0 °F 50.0 °F 46% 30.18 in 10.0 mi Calm Calm - N/A   Clear
10:54 AM 73.9 °F 46.9 °F 38% 30.17 in 10.0 mi Calm Calm - N/A   Clear
11:54 AM 77.0 °F 50.0 °F 39% 30.14 in 10.0 mi Variable 3.5 mph - N/A   Clear
12:54 PM 79.0 °F 51.1 °F 38% 30.12 in 10.0 mi Variable 4.6 mph - N/A   Scattered Clouds
1:54 PM 81.0 °F 52.0 °F 36% 30.10 in 10.0 mi Variable 4.6 mph - N/A   Clear
2:54 PM 82.0 °F 50.0 °F 33% 30.08 in 10.0 mi Variable 3.5 mph - N/A   Partly Cloudy
3:54 PM 82.9 °F 48.9 °F 31% 30.06 in 10.0 mi West 5.8 mph - N/A   Clear
4:54 PM 82.9 °F 48.9 °F 31% 30.05 in 10.0 mi Variable 4.6 mph - N/A   Clear
6:54 PM 81.0 °F 51.1 °F 35% 30.04 in 10.0 mi Calm Calm - N/A   Mostly Cloudy
7:54 PM 73.9 °F 55.9 °F 53% 30.04 in 10.0 mi East 3.5 mph - N/A   Overcast
8:54 PM 72.0 °F 55.9 °F 57% 30.03 in 10.0 mi Calm Calm - N/A   Overcast
9:54 PM 68.0 °F 57.9 °F 70% 30.02 in 10.0 mi Calm Calm - N/A   Partly Cloudy
10:54 PM 68.0 °F 57.9 °F 70% 30.02 in 10.0 mi Calm Calm - N/A   Partly Cloudy
11:54 PM 69.1 °F 53.1 °F 57% 30.01 in 10.0 mi Calm Calm - N/A   Overcast